Regional Weather Roundup
Issued by NWS Burlington, VT

Home | Current Version | Previous Version | Text Only | Print | Product List | Glossary On
Versions: 1 2 3 4 5 6 7 8 9 10 11 12 13 14 15 16 17 18 19 20 21 22 23 24 25 26 27 28 29 30 31 32 33 34 35 36 37 38 39 40 41 42 43 44 45 46 47 48 49 50
000
ASUS41 KBTV 011830
RWRBTV
VERMONT REGIONAL WEATHER ROUNDUP
NATIONAL WEATHER SERVICE BURLINGTON VT
200 PM EDT TUE SEP 01 2015

NOTE: "FAIR" INDICATES FEW OR NO CLOUDS BELOW 12,000 FEET WITH NO
SIGNIFICANT WEATHER AND/OR OBSTRUCTIONS TO VISIBILITY.

* THESE REPORTS ARE NOT UNDER NWS QUALITY CONTROL AND/OR DO NOT
  REPORT WEATHER SUCH AS PRECIPITATION AND FOG.

VTZ001>019-011900-
_____VERMONT_____


CITY           SKY/WX    TMP DP  RH WIND       PRES   REMARKS
BURLINGTON     MOSUNNY   82  57  42 VRB3      30.04F
6HR MIN TEMP:  63; 6HR MAX TEMP:  82;

MONTPELIER     SUNNY     77  56  48 CALM      30.12S
6HR MIN TEMP:  58; 6HR MAX TEMP:  77;

MORRISVILLE    SUNNY     81  59  47 VRB5      30.07F
6HR MIN TEMP:  60; 6HR MAX TEMP:  82;

ST. JOHNSBURY*   N/A     77  56  48 MISG      30.04F
6HR MIN TEMP:  58; 6HR MAX TEMP:  77;

LYNDONVILLE*   FAIR      77  50  38 CALM      30.09S
6HR MIN TEMP:  57; 6HR MAX TEMP:  77;

MIDDLEBURY*    FAIR      83  54  37 CALM      30.05S
6HR MIN TEMP:  62; 6HR MAX TEMP:  83;

RUTLAND*       SUNNY     81  57  44 NE5       30.08F
6HR MIN TEMP:  59; 6HR MAX TEMP:  79;

SPRINGFIELD    SUNNY     82  59  45 E7        30.06S
6HR MIN TEMP:  58; 6HR MAX TEMP:  82;

HIGHGATE*      FAIR      80  60  51 S6        30.03F
6HR MIN TEMP:  60; 6HR MAX TEMP:  80;

NEWPORT*       FAIR      75  57  53 S5        30.07F
6HR MIN TEMP:  56; 6HR MAX TEMP:  75;

BENNINGTON     SUNNY     82  59  45 N5        30.07S
6HR MIN TEMP:  62; 6HR MAX TEMP:  83;

SUTTON*          N/A     77 N/A N/A MISG        N/A
MT. MANSFIELD*   N/A     68 N/A N/A NW3         N/A

_____LAKE CHAMPLAIN_____


CITY           SKY/WX    TMP DP  RH WIND       PRES   REMARKS
COLCHESTER RF*   N/A     75  66  73 S8          N/A
DIAMOND ISL*     N/A     77  63  61 N5          N/A

$$

NYZ007-026>031-035-052-083-011900-
_____NORTHERN NEW YORK_____


CITY           SKY/WX    TMP DP  RH WIND       PRES   REMARKS
PLATTSBURGH    SUNNY     76  64  66 SE9       30.04S
6HR MIN TEMP:  64; 6HR MAX TEMP:  77;

SARANAC LAKE   SUNNY     78  51  38 W6        30.08F
6HR MIN TEMP:  59; 6HR MAX TEMP:  79;

MASSENA        MOSUNNY   80  65  59 SW6       30.03F
6HR MIN TEMP:  60; 6HR MAX TEMP:  81;

OGDENSBURG*    MOSUNNY   82  70  65 SW7       30.02F
POTSDAM*       MOSUNNY   81  72  74 SW6       30.03F
WATERTOWN      MOSUNNY   77  67  71 W10       30.06S HAZE
6HR MIN TEMP:  68; 6HR MAX TEMP:  78;

FT DRUM        MOSUNNY   80  67  64 W8        30.05F
6HR MIN TEMP:  64; 6HR MAX TEMP:  81;

ALBANY         MOSUNNY   83  64  52 CALM      30.05S
6HR MIN TEMP:  68; 6HR MAX TEMP:  83;

GLENS FALLS    SUNNY     82  58  43 MISG      30.05S
6HR MIN TEMP:  62; 6HR MAX TEMP:  83;


$$
NHZ002-005-011-011900-
_____NEW HAMPSHIRE_____


CITY           SKY/WX    TMP DP  RH WIND       PRES   REMARKS
LEBANON        SUNNY     81  58  45 VRB5      30.05F
6HR MIN TEMP:  61; 6HR MAX TEMP:  82;

KEENE          SUNNY     81  55  41 SW5       30.06S
6HR MIN TEMP:  59; 6HR MAX TEMP:  81;

MT WASHINGTON  MOSUNNY   61  27  27 VRB5        N/A
6HR MIN TEMP:  51; 6HR MAX TEMP:  61;

PLYMOUTH       FAIR      80  55  40 CALM      30.04S
6HR MIN TEMP:  63; 6HR MAX TEMP:  80;

WHITEFIELD     SUNNY     78  52  40 W3        30.07S
6HR MIN TEMP:  55; 6HR MAX TEMP:  79;


$$

_____REGIONAL QUEBEC LOCATIONS_____


CITY           SKY/WX    TMP DP  RH WIND       PRES   REMARKS
MONTREAL       PTSUNNY   77  64  65 S12       30.02F
QUEBEC CITY    CLOUDY    73  55  53 SW13      30.01F
SHERBROOKE     SUNNY     73  54  49 W7        30.05F

_____REGIONAL ONTARIO LOCATIONS_____


CITY           SKY/WX    TMP DP  RH WIND       PRES   REMARKS
OTTAWA         PTSUNNY   81  68  65 SW9       30.02F

______KEY______
VSB  - VISIBILITY IN MILES
WCI  - WIND CHILL INDEX
HX   - HEAT INDEX
$$
NNNN



USA.gov is the U.S. government's official web portal to all federal, state and local government web resources and services.